Weather History for Muskogee, OK

Change the Weather History Date:

Saturday, April 27, 2013

  Actual Average Record
Temperature  
Mean Temperature 55 °F -  
Max Temperature 57 °F 72 °F 84 °F (2014)
Min Temperature 53 °F 50 °F 37 °F (2006)
Degree Days  
Heating Degree Days 10    
Growing Degree Days 5 (Base 50)    
Moisture  
Dew Point 53 °F    
Average Humidity 94    
Maximum Humidity 100    
Minimum Humidity 82    
Precipitation  
Precipitation 0.50 in - - ()
Sea Level Pressure  
Sea Level Pressure 30.06 in    
Wind  
Wind Speed 8 mph (NNW)    
Max Wind Speed 25 mph    
Max Gust Speed 37 mph    
Visibility 8 miles    
Events Rain , Thunderstorm    
Averages and records for this station are not official NWS values.
T = Trace of Precipitation, MM = Missing Value Source: NWS Daily Summary

Daily Weather History Graph

Daily Weather History Graph

Search for Another Location

Airport:

Trip Planner

Search our weather history database for the weather conditions in past years. The results will help you decide how hot, cold, wet, or windy it might be!

Date:

Astronomy

Apr. 27, 2013 Rise Set
Actual Time 6:33 AM CDT 8:04 PM CDT
Civil Twilight 6:06 AM CDT 8:32 PM CDT
Nautical Twilight 5:34 AM CDT 9:04 PM CDT
Astronomical Twilight 5:00 AM CDT 9:38 PM CDT
Moon 10:31 PM CDT (4/27) 7:56 AM CDT (4/27)
Length of Visible Light 14h 25m
Length of Day
13h 31m
Waning Gibbous, 95% of the Moon is Illuminated
Apr 27
Waning Gibbous
May 2
Last Quarter
May 9
New
May 17
First Quarter
May 24
Full

Hourly Weather History & Observations

Time (CDT) Temp. Dew Point Humidity Pressure Visibility Wind Dir Wind Speed Gust Speed Precip Events Conditions
12:05 AM 53.6 °F 53.6 °F 100% 30.08 in 9.0 mi East 6.9 mph - N/A Thunderstorm Thunderstorm
12:41 AM 53.6 °F 53.6 °F 100% 30.12 in 2.5 mi NW 13.8 mph 23.0 mph 0.12 in Rain , Thunderstorm Heavy Thunderstorms and Rain
12:53 AM 54.0 °F 53.1 °F 97% 30.13 in 1.8 mi WNW 6.9 mph - 0.27 in Rain , Thunderstorm Heavy Thunderstorms and Rain
1:01 AM 53.6 °F 53.6 °F 100% 30.12 in 2.5 mi North 9.2 mph - 0.04 in Rain , Thunderstorm Heavy Thunderstorms and Rain
1:09 AM 53.6 °F 53.6 °F 100% 30.11 in 4.0 mi ENE 4.6 mph - 0.05 in Rain , Thunderstorm Light Rain
1:53 AM 54.0 °F 54.0 °F 100% 30.01 in 5.0 mi SE 18.4 mph - 0.19 in Rain , Thunderstorm Thunderstorms and Rain
2:12 AM 55.4 °F 53.6 °F 94% 29.93 in 10.0 mi ESE 25.3 mph 36.8 mph 0.02 in Rain Light Rain
2:53 AM 55.0 °F 53.1 °F 93% 29.98 in 10.0 mi SSE 16.1 mph 23.0 mph 0.02 in   Scattered Clouds
3:41 AM 53.6 °F 53.6 °F 100% 30.06 in 10.0 mi West 4.6 mph - N/A   Mostly Cloudy
3:53 AM 54.0 °F 53.1 °F 97% 30.06 in 10.0 mi West 5.8 mph - N/A   Mostly Cloudy
4:53 AM 54.0 °F 53.1 °F 97% 30.04 in 10.0 mi Calm Calm - 0.00 in Rain Light Rain
5:37 AM 53.6 °F 53.6 °F 100% 30.04 in 10.0 mi North 5.8 mph - 0.01 in   Overcast
5:53 AM 54.0 °F 54.0 °F 100% 30.04 in 9.0 mi North 6.9 mph - 0.01 in Rain Light Rain
6:04 AM 53.6 °F 53.6 °F 100% 30.04 in 10.0 mi North 4.6 mph - 0.00 in   Overcast
6:24 AM 53.6 °F 53.6 °F 100% 30.04 in 8.0 mi North 5.8 mph - 0.00 in   Overcast
6:53 AM 54.0 °F 54.0 °F 100% 30.05 in 7.0 mi North 5.8 mph - 0.00 in   Overcast
7:22 AM 53.6 °F 53.6 °F 100% 30.06 in 5.0 mi Calm Calm - N/A   Overcast
7:46 AM 53.6 °F 53.6 °F 100% 30.05 in 3.0 mi North 4.6 mph - 0.00 in Rain Light Rain
7:53 AM 54.0 °F 54.0 °F 100% 30.05 in 3.0 mi Calm Calm - 0.00 in Rain Light Rain
8:12 AM 55.4 °F 53.6 °F 94% 30.06 in 4.0 mi NNW 3.5 mph - 0.01 in Rain Light Rain
8:39 AM 55.4 °F 53.6 °F 94% 30.06 in 4.0 mi North 3.5 mph - 0.01 in Rain Light Rain
8:53 AM 55.0 °F 54.0 °F 96% 30.06 in 5.0 mi NNW 3.5 mph - 0.01 in Rain Light Rain
9:05 AM 55.4 °F 55.4 °F 100% 30.07 in 4.0 mi NW 4.6 mph - 0.00 in   Overcast
9:15 AM 55.4 °F 53.6 °F 94% 30.07 in 5.0 mi NNW 8.1 mph - 0.00 in   Overcast
9:53 AM 54.0 °F 54.0 °F 100% 30.06 in 2.5 mi NW 9.2 mph - 0.00 in   Overcast
10:02 AM 55.4 °F 53.6 °F 94% 30.07 in 3.0 mi NW 8.1 mph - N/A   Overcast
10:53 AM 54.0 °F 53.1 °F 97% 30.08 in 4.0 mi NW 12.7 mph - N/A   Overcast
11:15 AM 53.6 °F 53.6 °F 100% 30.08 in 5.0 mi NW 13.8 mph - N/A   Overcast
11:53 AM 55.0 °F 53.1 °F 93% 30.09 in 10.0 mi NNW 11.5 mph - N/A   Overcast
12:25 PM 55.4 °F 53.6 °F 94% 30.09 in 10.0 mi NW 11.5 mph - N/A   Overcast
12:53 PM 57.0 °F 53.1 °F 87% 30.09 in 10.0 mi NNW 11.5 mph - N/A   Overcast
1:53 PM 57.0 °F 52.0 °F 83% 30.09 in 10.0 mi NW 11.5 mph - N/A   Overcast
2:53 PM 57.0 °F 52.0 °F 83% 30.09 in 10.0 mi NW 12.7 mph - N/A   Overcast
3:53 PM 55.9 °F 52.0 °F 87% 30.08 in 10.0 mi NNW 12.7 mph - N/A   Overcast
4:38 PM 57.2 °F 51.8 °F 82% 30.08 in 10.0 mi NNW 10.4 mph - N/A   Overcast
4:53 PM 55.9 °F 52.0 °F 87% 30.07 in 10.0 mi NNW 10.4 mph - N/A   Overcast
5:34 PM 55.4 °F 51.8 °F 88% 30.07 in 10.0 mi North 8.1 mph - N/A   Overcast
5:53 PM 55.9 °F 52.0 °F 87% 30.06 in 10.0 mi NNW 5.8 mph - N/A   Overcast
6:53 PM 55.0 °F 51.1 °F 86% 30.06 in 10.0 mi North 6.9 mph - N/A   Overcast
7:27 PM 55.4 °F 51.8 °F 88% 30.06 in 10.0 mi NNW 6.9 mph - N/A   Overcast
7:38 PM 55.4 °F 51.8 °F 88% 30.06 in 10.0 mi NNW 6.9 mph - N/A   Overcast
7:53 PM 55.0 °F 51.1 °F 86% 30.05 in 10.0 mi NNW 5.8 mph - N/A   Overcast
8:20 PM 53.6 °F 51.8 °F 94% 30.06 in 10.0 mi NNW 3.5 mph - N/A   Overcast
8:39 PM 53.6 °F 51.8 °F 94% 30.06 in 10.0 mi NNW 4.6 mph - N/A   Overcast
8:53 PM 54.0 °F 52.0 °F 93% 30.06 in 10.0 mi Calm Calm - N/A   Overcast
9:39 PM 53.6 °F 51.8 °F 94% 30.06 in 10.0 mi North 3.5 mph - N/A   Overcast
9:48 PM 53.6 °F 51.8 °F 94% 30.06 in 10.0 mi Calm Calm - N/A   Overcast
9:53 PM 53.1 °F 52.0 °F 96% 30.06 in 10.0 mi Calm Calm - N/A   Overcast
10:53 PM 53.1 °F 52.0 °F 96% 30.06 in 10.0 mi NNW 5.8 mph - N/A   Overcast
11:53 PM 54.0 °F 52.0 °F 93% 30.06 in 10.0 mi Calm Calm - N/A   Overcast